SCP
0 0 1 1 0 0 0 0 0 0 0 0 1 1 1 1 1 1 1 1 1 1 1 1 1 1 1 1 1 1 1 1 1 1 1 1 1 1 1 1 1 1 0
0 0 1 1 0 0 0 0 0 0 0 1 1 1 1 1 1 1 1 2 1 1 1 1 1 1 1 1 1 1 1 1 1 1 1 1 1 1 1 1 1 1 1
0 0 0 1 1 0 0 0 0 0 0 1 1 1 1 1 1 1 2 2 2 1 1 1 1 0 1 1 1 1 1 1 1 1 1 1 1 1 1 1 1 1 1
0 0 0 1 0 0 0 0 0 0 0 1 1 1 1 1 1 1 2 2 2 1 1 1 1 1 1 1 1 1 1 1 1 1 1 0 0 1 1 1 1 1 1
0 0 0 0 0 0 0 0 0 0 0 1 1 1 1 1 1 1 1 1 1 1 1 1 1 1 1 1 1 1 1 1 1 0 0 0 0 1 1 1 1 1 1
1 1 1 1 1 0 0 0 0 0 1 1 1 1 1 1 1 1 1 1 1 1 1 1 1 1 1 1 1 1 1 1 0 0 0 0 1 1 1 1 1 1 1
1 1 1 1 1 1 0 0 0 1 1 1 1 1 1 1 1 1 1 1 1 1 1 1 1 1 1 1 1 1 0 0 0 0 0 0 1 1 1 1 1 1 1
1 1 1 1 1 1 1 1 1 1 1 1 1 1 1 1 1 1 1 1 1 1 1 1 1 1 1 0 0 0 0 0 0 0 0 0 0 1 1 1 1 1 1
1 1 1 1 1 1 1 1 1 1 1 1 0 0 0 0 1 0 0 0 0 0 0 0 1 1 1 1 1 0 0 0 0 0 0 0 0 1 1 1 1 1 1
1 1 1 1 1 1 1 1 1 1 1 1 0 0 0 0 0 0 0 0 0 0 0 1 1 1 1 1 1 1 0 0 0 0 0 0 1 1 1 1 1 1 1
1 1 2 2 2 1 1 1 1 1 1 0 0 0 0 0 0 0 0 0 0 0 0 1 1 1 0 0 1 0 0 0 0 0 0 0 1 1 1 1 1 1 1
1 1 2 2 2 1 1 1 1 1 0 0 0 0 0 0 0 0 0 0 0 0 0 1 1 0 0 0 0 0 0 0 0 0 0 0 0 0 1 1 1 1 1
1 1 2 2 2 2 1 1 1 1 0 0 0 0 0 0 0 0 0 0 0 0 0 0 0 0 0 0 0 0 0 0 0 0 0 0 0 0 1 1 1 1 1
1 1 2 2 2 2 1 1 1 1 0 0 0 0 0 0 0 0 0 0 0 0 0 0 0 0 0 0 0 0 0 0 0 0 0 0 0 0 1 1 1 1 1
1 1 1 2 2 2 2 1 1 1 0 0 0 0 0 0 0 0 0 0 0 0 0 0 0 0 0 0 0 0 0 0 0 0 0 0 0 1 1 1 1 1 1
1 1 1 1 2 2 2 1 1 1 0 0 0 0 0 0 0 0 0 0 0 0 0 0 0 0 0 0 0 0 0 0 0 0 0 0 0 0 1 1 1 1 1
1 1 1 1 1 2 2 1 1 1 0 0 0 0 0 0 0 0 0 0 0 0 0 0 0 0 0 0 0 0 0 0 0 0 0 0 0 0 1 1 1 1 1
1 1 1 1 1 1 1 1 1 1 0 0 0 1 1 0 0 0 0 0 0 0 0 0 0 0 0 0 0 0 0 0 0 0 0 0 0 0 1 1 1 1 1
2 1 1 1 1 1 1 1 1 1 0 0 0 0 0 0 0 0 0 0 0 0 0 0 0 0 0 0 0 0 0 0 0 0 0 0 0 0 0 1 1 1 1
2 2 2 1 1 1 1 1 1 1 0 0 0 0 0 0 0 0 0 0 0 0 0 0 0 0 0 0 0 0 0 0 0 0 0 0 0 0 0 0 0 0 0
2 2 2 2 1 1 1 1 1 1 0 0 0 0 0 0 0 0 0 0 0 0 0 0 0 0 0 0 0 0 0 0 0 0 0 0 0 0 0 0 0 0 0
2 2 2 2 1 1 1 1 1 1 1 0 0 0 0 0 0 0 0 0 0 0 0 0 0 0 0 0 0 0 0 0 0 0 0 0 0 0 0 0 0 0 0
2 2 2 2 1 1 1 1 1 1 1 1 0 0 0 0 0 0 0 0 0 0 0 0 0 0 0 0 0 0 0 0 0 0 0 0 0 0 0 0 0 0 0
2 2 2 2 1 1 1 1 1 1 1 1 1 1 1 0 0 0 0 0 0 0 1 1 0 0 0 0 0 0 0 0 0 0 0 0 0 0 0 0 0 0 0
2 2 2 2 1 1 1 1 1 1 1 1 1 1 1 0 0 0 0 0 0 0 0 0 0 0 0 0 0 0 0 0 0 0 0 0 0 0 0 0 0 0 0
2 2 2 1 1 1 1 1 1 1 1 1 1 1 1 0 0 0 0 0 0 0 0 0 0 0 0 0 0 0 0 0 0 0 0 0 0 0 0 0 0 0 0
Wind_Speed
2 3 3 4 6 7 8 8 9 9 9 9 9 10 9 10 10 10 10 10 9 8 8 9 9 9 9 9 8 8 8 8 9 9 8 7 7 7 7 7 6 4 7
1 2 3 4 6 7 8 8 8 9 9 9 9 9 9 10 10 10 10 10 10 10 9 10 10 9 9 9 8 9 9 9 9 9 9 8 7 7 7 7 7 4 6
1 1 2 4 6 7 8 9 9 9 9 9 9 9 9 10 10 10 11 11 11 11 11 11 10 10 9 9 8 9 9 9 9 9 8 5 4 6 6 6 6 6 6
2 2 2 4 6 7 8 9 9 9 9 9 10 10 10 11 10 11 11 11 11 11 11 11 10 10 9 9 9 8 8 9 9 8 5 4 3 6 6 6 5 6 6
2 2 2 5 6 6 7 8 8 9 9 9 10 11 11 11 11 11 10 11 11 11 10 10 10 10 9 9 9 9 9 9 9 7 4 4 3 6 6 6 6 6 6
3 2 2 4 6 6 6 7 8 8 9 9 10 10 10 10 10 10 10 10 10 10 10 10 9 9 9 9 9 10 10 10 9 5 4 4 3 5 6 6 7 7 6
2 2 2 4 5 5 6 6 7 7 9 9 10 9 9 9 9 9 9 9 10 10 10 10 10 10 10 11 11 10 10 10 6 4 4 3 3 6 6 7 7 7 6
3 3 3 4 5 5 5 6 7 7 8 9 9 9 9 9 8 9 9 9 9 10 10 10 10 11 11 11 11 11 11 9 6 5 3 3 6 7 7 7 7 7 7
3 3 3 4 4 5 6 6 6 7 7 8 8 8 8 9 9 9 9 9 9 10 10 10 11 11 12 11 11 11 11 11 5 3 4 3 6 8 8 8 8 8 8
4 3 3 4 4 4 4 5 6 6 7 7 7 7 8 8 8 8 8 8 9 10 10 11 11 11 12 12 12 12 11 8 5 4 3 4 9 9 9 9 8 8 8
3 2 3 3 4 3 3 4 5 6 6 6 6 7 7 4 4 5 7 8 9 10 10 11 11 11 11 11 11 11 8 3 4 3 2 7 9 10 10 10 9 9 9
2 2 2 2 3 3 3 3 3 3 3 4 4 4 3 3 3 5 7 9 9 9 9 10 11 10 8 5 7 8 4 5 4 3 3 8 9 9 9 10 10 10 9
0 1 2 1 2 2 2 2 2 2 2 3 4 4 3 3 3 3 3 4 5 6 5 6 6 4 4 4 3 4 4 4 3 3 4 8 9 9 9 10 10 10 10
2 1 1 1 1 2 2 2 2 2 2 2 2 3 2 2 2 2 2 3 3 2 3 3 3 4 4 4 4 4 5 3 3 3 3 8 9 9 9 9 9 10 10
1 1 1 1 1 1 2 2 2 2 2 2 2 2 2 2 2 2 2 2 2 2 2 3 3 3 4 4 4 4 4 4 4 4 3 7 8 8 8 9 8 9 9
1 0 1 2 2 2 2 1 1 1 1 2 2 2 2 2 2 2 2 2 2 2 2 2 3 3 3 3 3 4 4 3 4 4 3 4 7 7 8 8 8 8 8
1 1 1 2 2 2 2 2 2 1 1 1 1 2 2 2 2 2 2 2 2 2 2 3 3 3 3 3 3 3 3 3 3 3 3 3 4 6 7 7 7 7 7
1 1 1 1 2 2 2 1 1 1 2 1 1 1 2 1 2 2 2 2 1 2 2 2 2 3 3 3 2 2 2 3 3 3 3 3 3 3 5 6 6 6 7
2 2 2 1 2 2 1 2 2 2 2 1 1 1 1 1 1 2 2 1 2 2 2 2 2 2 2 2 2 2 3 3 3 3 3 3 3 3 2 4 6 5 6
2 2 2 2 1 2 2 2 2 2 2 2 1 1 1 1 1 1 2 2 2 2 2 2 2 2 2 1 2 3 3 2 2 3 3 2 2 3 3 3 3 4 5
2 2 1 2 1 2 1 1 1 1 1 1 1 2 2 1 1 2 2 2 2 2 2 2 2 2 2 1 2 2 3 3 3 2 2 2 3 3 3 3 2 2 2
2 1 1 1 1 1 1 1 1 0 0 0 1 2 2 1 1 1 2 1 1 2 2 2 2 1 1 1 2 2 2 3 3 2 2 2 2 2 2 3 2 2 2
1 2 2 1 1 1 2 2 2 2 2 2 2 2 2 2 1 1 1 1 1 2 1 1 2 2 1 1 1 2 2 1 1 2 2 2 2 2 2 2 2 2 2
3 2 1 1 1 1 2 2 2 1 1 1 1 1 2 2 1 1 1 1 1 1 1 1 2 1 2 1 1 1 1 2 2 1 2 2 2 2 2 2 2 2 2
2 1 1 1 1 1 2 2 2 1 1 1 1 1 2 2 2 1 1 1 1 1 1 1 1 1 1 2 1 1 1 2 1 2 1 2 2 1 1 1 2 2 2
1 1 1 2 1 1 2 2 2 1 1 0 1 1 1 1 1 2 1 1 1 1 1 1 2 2 1 2 2 2 2 1 1 1 1 1 2 2 2 1 1 2 2
Wind_Direction
298 305 353 62 70 75 74 71 70 70 72 74 75 76 78 82 84 83 83 81 80 84 90 91 89 89 87 82 77 77 80 82 81 84 90 98 96 93 90 91 89 90 98
252 317 19 69 76 77 76 73 69 69 71 73 74 76 79 81 81 80 79 77 74 78 85 87 83 84 83 80 77 75 75 76 75 75 73 73 79 84 87 90 92 90 93
104 22 44 82 84 81 77 74 72 71 71 73 73 74 81 83 80 79 77 73 71 74 82 83 80 78 79 81 81 78 75 75 74 70 63 53 64 76 86 92 94 93 93
100 57 58 85 85 83 80 77 74 72 72 74 73 75 81 82 82 81 77 74 73 73 78 80 79 76 77 79 81 81 80 78 75 68 59 53 59 72 77 88 92 89 90
77 52 55 90 88 85 83 82 78 74 74 77 77 76 79 80 81 79 76 74 73 74 77 80 80 77 76 77 78 80 81 78 73 65 58 52 52 70 73 78 87 91 91
71 45 52 91 91 86 83 85 82 79 79 80 80 80 79 78 79 78 74 73 71 72 74 77 79 77 76 76 76 76 75 72 65 59 56 51 50 66 72 78 87 88 89
73 37 36 79 86 85 83 81 79 79 78 79 80 80 79 77 75 74 73 75 73 72 71 72 73 74 75 74 73 73 72 68 64 59 55 47 57 65 70 78 80 80 81
77 48 35 57 71 78 80 79 78 78 78 77 78 78 75 74 73 73 74 75 75 73 71 70 71 74 76 74 73 71 70 66 63 60 50 48 66 67 68 73 74 73 76
59 52 33 27 39 55 70 74 73 74 77 76 75 75 72 71 69 69 69 72 73 72 72 73 76 76 76 75 72 71 67 62 54 48 57 56 66 68 70 71 73 75 72
54 45 33 25 30 36 41 59 66 66 68 67 65 66 65 62 59 60 63 70 72 72 72 74 75 76 74 72 69 67 62 52 44 41 40 64 68 69 70 70 72 75 74
51 34 33 29 26 29 36 52 53 59 57 55 51 55 55 44 41 46 55 68 70 71 71 72 74 75 72 67 65 62 54 39 44 39 42 66 67 67 66 66 69 74 75
20 4 27 38 37 33 41 46 36 46 46 47 46 43 43 41 38 47 49 61 62 64 65 68 69 68 62 50 52 53 41 39 42 32 49 66 68 68 68 67 69 73 75
25 20 31 36 45 48 44 48 40 38 40 41 44 48 48 43 37 38 38 40 43 50 49 55 56 52 53 51 49 46 43 44 36 27 39 62 69 71 71 71 70 74 75
67 24 24 43 50 45 57 55 53 49 44 39 37 51 60 54 43 39 42 35 39 42 53 56 62 58 58 54 55 52 46 46 40 30 37 57 67 71 72 72 73 74 73
78 31 35 59 58 52 62 53 60 54 56 47 41 44 64 70 56 49 49 46 44 47 56 62 66 65 60 54 53 56 50 47 43 39 29 47 60 68 70 70 75 76 72
128 115 78 78 62 59 66 69 65 51 58 57 45 40 60 75 74 64 51 43 39 44 57 74 75 73 65 64 53 49 50 45 44 42 35 34 46 56 62 64 72 75 71
187 174 133 116 80 71 60 64 73 54 55 57 47 39 46 61 73 77 69 50 33 44 64 73 69 67 69 65 54 45 48 45 45 41 37 34 31 43 54 58 67 73 69
153 148 143 125 96 81 66 56 63 63 66 50 41 40 44 50 73 82 74 50 39 59 66 76 71 69 63 61 56 40 42 42 38 39 41 36 32 26 33 46 62 69 66
161 153 132 106 110 108 87 63 65 62 62 50 43 39 31 31 66 98 87 62 65 73 69 80 67 80 79 61 65 52 40 40 28 34 38 36 32 29 25 27 39 48 55
133 123 120 103 100 105 84 58 49 47 33 36 34 25 37 42 61 86 83 66 74 80 63 73 81 66 79 75 70 59 40 36 36 34 28 30 28 28 31 27 17 19 33
91 98 116 109 106 103 84 85 71 22 355 6 360 3 26 38 73 94 84 78 81 95 96 99 95 77 53 50 73 45 22 33 41 32 25 29 25 19 25 23 18 13 11
155 146 130 134 140 139 147 159 152 141 319 332 353 358 5 12 44 100 105 108 103 98 89 91 97 96 57 47 96 90 27 3 3 17 16 24 11 12 17 16 19 18 12
184 190 181 175 153 148 120 87 61 49 28 16 0 346 338 344 358 82 112 116 112 118 123 116 110 114 120 43 57 123 132 207 314 342 2 12 8 9 355 358 13 5 12
217 208 177 150 119 121 120 113 113 124 189 249 262 287 327 357 360 59 108 114 113 105 114 141 124 129 129 122 42 45 101 148 142 330 332 346 1 359 348 355 357 358 7
198 172 143 104 90 93 118 136 132 153 238 278 320 352 356 360 8 28 73 99 115 114 123 117 101 107 116 136 137 115 78 60 83 141 279 321 336 325 333 339 346 351 359
135 117 102 101 85 86 111 124 139 176 257 4 349 344 339 345 350 7 36 56 81 107 126 131 122 117 119 118 116 115 130 135 160 143 184 273 300 309 326 331 341 339 339